Wind_Speed
53 53 53 53 53 54 55 55 56 56 57 58 58 59 61 61 60 62 64 60 57 57 59 58 57 57 57 55 52 49 46 44 44 43 42 42 43 45 45 42 41 40 37 36 37 38 40 43 44 45 47 47 47 47 49 50 51 51 52 52 51 51 50
56 55 55 55 55 56 56 57 57 58 59 59 60 61 62 64 63 62 64 66 63 59 59 60 59 58 58 57 55 53 51 50 50 49 47 45 47 50 49 44 44 44 41 38 37 36 37 39 40 41 43 44 45 46 47 48 48 49 49 49 49 49 49
58 58 58 58 58 57 58 58 59 60 60 61 61 62 63 64 66 66 65 66 67 64 62 61 60 59 60 59 57 56 55 55 56 54 51 49 50 51 50 47 47 47 45 42 39 38 37 37 36 37 37 39 41 42 43 45 46 47 47 47 47 47 48
61 60 60 60 60 60 59 60 60 61 61 62 63 63 64 65 67 68 68 67 68 68 66 64 62 60 61 61 60 59 58 57 57 56 53 52 53 53 52 50 50 50 49 45 42 40 38 37 36 35 35 36 37 38 40 41 43 44 45 46 46 47 47
64 64 63 62 62 62 62 62 62 62 62 63 64 64 65 66 67 69 70 70 69 69 69 68 65 62 62 63 62 60 60 58 56 55 53 53 54 55 54 52 52 52 52 49 46 42 39 38 37 35 33 33 34 36 38 40 41 43 44 45 45 46 47
66 66 66 65 65 65 64 64 64 64 64 64 65 66 66 67 69 70 71 72 72 72 72 72 70 66 64 65 65 62 60 59 57 55 56 55 55 57 57 54 54 54 55 53 49 45 43 41 39 37 35 33 32 34 37 38 40 41 42 43 43 44 46
64 65 66 66 67 67 67 67 66 66 66 66 66 67 68 69 70 71 72 73 74 75 74 74 74 72 68 66 68 66 62 61 59 58 59 59 59 61 60 57 56 57 57 55 52 48 46 45 43 41 40 37 35 35 36 37 39 39 40 41 41 42 43
63 63 64 65 65 66 67 68 68 68 68 68 68 68 68 70 71 72 73 74 76 77 77 77 77 77 74 70 70 71 68 65 64 63 62 62 63 65 64 59 58 59 58 57 56 53 50 49 47 46 44 41 39 39 38 38 38 38 39 40 39 39 40
64 63 64 64 65 65 66 67 68 69 70 70 70 70 70 71 72 73 74 75 77 77 78 79 79 80 79 76 73 73 74 71 68 67 67 66 66 67 67 63 61 61 60 60 59 57 55 53 51 50 48 45 43 43 41 40 39 38 38 37 37 36 36
65 65 65 65 66 66 66 67 68 69 70 71 72 72 72 72 73 74 75 76 77 78 79 80 81 81 82 81 79 76 77 77 74 72 71 72 71 71 70 68 64 63 63 64 63 61 60 59 57 54 51 48 47 46 44 42 41 40 37 36 36 34 34
65 66 66 66 66 67 67 68 69 69 70 71 72 73 74 74 74 75 76 77 78 79 80 81 82 83 83 84 84 81 80 81 81 78 76 77 77 76 75 72 68 65 65 66 66 65 64 64 63 59 54 52 51 48 47 45 44 43 40 39 38 37 36
66 66 67 67 67 68 68 69 70 71 71 71 72 74 75 76 77 77 78 79 79 80 81 82 83 84 84 85 86 86 84 84 84 84 82 81 81 81 79 76 71 68 66 66 67 67 67 67 67 63 59 58 55 51 49 48 47 46 44 44 44 42 42
67 67 68 68 68 69 69 70 71 71 72 73 73 74 76 78 79 80 80 81 81 82 83 84 84 84 85 86 86 88 88 87 87 87 87 86 85 84 82 78 75 72 69 68 68 67 67 67 68 67 65 63 60 57 54 52 51 49 48 49 48 47 47
69 69 69 69 70 70 71 71 71 72 72 73 74 75 76 77 79 81 82 83 84 84 85 85 86 86 86 86 87 88 90 90 90 89 90 90 89 88 85 82 80 77 74 72 70 70 69 68 70 71 69 66 64 62 60 57 55 54 52 52 51 51 50
71 71 71 71 71 72 72 72 72 72 73 74 75 76 76 77 78 79 81 83 85 86 87 87 87 88 88 88 89 89 90 91 92 92 92 92 92 92 90 88 85 82 81 78 74 73 73 72 73 74 73 69 66 65 64 62 61 59 57 56 56 56 53
72 72 72 72 73 73 73 73 73 73 74 74 75 76 77 78 78 79 80 81 84 86 87 88 88 88 89 90 90 91 91 92 92 94 94 95 95 94 94 93 90 88 87 83 80 77 76 76 77 77 75 72 70 69 68 67 66 63 61 60 61 60 57
73 73 73 74 74 75 75 75 75 75 75 76 77 77 78 79 80 80 80 81 82 84 85 87 88 89 90 91 92 92 93 94 94 94 95 96 97 97 96 95 94 93 92 88 85 82 80 79 79 78 76 74 72 72 72 71 70 67 65 64 64 63 61
75 75 75 76 77 77 77 77 77 77 78 78 79 79 79 80 81 81 82 82 83 84 85 86 87 88 89 90 91 93 94 95 96 96 96 96 97 98 98 97 97 97 96 93 90 87 84 83 81 79 78 76 74 74 74 73 72 70 67 67 67 66 64
77 77 78 78 79 80 80 80 80 80 81 81 81 81 81 82 82 83 84 84 84 85 86 86 87 88 89 90 91 92 94 95 97 97 98 98 98 99 99 100 100 100 99 97 94 91 89 87 85 81 80 80 77 77 77 76 75 72 68 68 69 68 67
79 80 80 81 81 82 82 82 82 83 83 83 84 84 84 84 84 85 86 86 87 87 87 87 87 88 89 91 92 93 94 95 96 98 98 99 99 99 100 100 101 102 101 99 97 96 94 92 89 85 83 82 80 79 80 79 78 74 70 70 71 70 68
82 82 83 83 84 84 84 84 85 85 85 86 86 86 87 87 87 88 88 89 89 89 89 89 89 90 91 92 93 94 95 96 96 97 98 99 100 100 100 101 101 102 102 101 100 100 98 95 93 90 87 84 82 81 81 81 79 75 71 71 72 71 70
85 85 85 85 86 86 86 86 87 87 87 88 88 89 89 89 90 90 91 91 91 91 91 91 92 93 94 94 95 95 96 97 97 97 98 99 99 100 101 101 101 101 102 102 102 102 101 99 97 94 91 87 86 86 85 83 80 76 73 73 73 71 71
87 87 87 88 88 88 88 89 89 89 89 89 90 90 91 91 92 93 93 93 93 93 93 93 94 96 97 97 97 97 98 98 98 98 98 99 99 100 100 101 102 102 102 102 102 103 103 101 99 97 95 92 90 90 89 86 82 79 76 75 74 72 71
89 89 89 90 91 91 91 91 91 91 91 91 91 91 92 92 93 94 94 95 95 95 94 94 96 98 99 100 100 100 100 100 100 99 99 99 100 100 100 101 102 102 102 102 102 102 102 102 101 99 98 96 94 93 91 88 85 81 78 77 76 74 73
88 88 90 91 91 92 92 92 92 92 91 91 91 91 91 92 92 93 94 94 95 95 94 95 96 98 100 101 101 101 102 103 102 101 101 101 101 101 101 101 102 103 102 102 102 102 102 101 101 101 100 99 97 95 92 90 87 84 80 78 77 76 75
85 86 87 88 89 89 90 90 90 89 88 88 87 88 88 88 89 90 91 91 92 92 92 93 94 96 98 99 100 101 102 103 104 104 103 103 103 103 102 102 102 103 103 102 102 102 101 101 100 101 101 100 99 97 94 92 91 87 84 81 79 78 78
80 80 81 83 84 84 84 84 84 83 83 82 82 83 83 84 84 85 86 86 86 87 87 89 91 92 94 96 98 99 99 101 102 103 104 104 104 104 104 103 102 102 103 103 102 101 101 100 100 100 101 100 100 98 96 94 94 91 87 83 82 81 80
73 74 75 76 76 76 76 76 76 76 75 75 76 77 78 79 80 80 81 81 80 80 82 84 87 88 89 91 93 94 95 96 98 100 101 103 104 104 104 104 103 103 103 103 103 102 101 100 100 100 100 99 99 99 98 97 95 93 88 84 82 82 81
67 68 69 69 69 69 69 69 69 69 69 69 70 71 72 73 74 75 74 74 74 75 77 80 83 83 84 86 89 90 90 91 92 94 96 98 101 103 103 104 104 103 103 102 102 102 101 101 100 100 100 99 98 99 99 97 95 93 88 85 83 82 81
63 64 64 63 63 62 61 62 62 62 62 62 63 64 65 67 68 68 68 68 69 70 73 76 78 79 80 82 83 84 84 85 86 88 91 94 97 99 101 102 102 103 102 101 101 101 102 102 101 100 100 99 98 98 98 96 95 93 89 86 83 82 81
60 60 59 58 58 57 57 57 56 56 55 55 56 57 59 60 62 62 62 63 64 65 68 71 73 74 75 76 77 78 78 79 81 83 86 89 92 94 96 98 99 100 101 101 100 101 102 103 102 101 99 97 96 96 96 95 94 93 90 86 83 82 79
57 56 55 55 54 54 53 52 51 49 48 48 50 53 53 54 55 55 55 57 58 59 62 65 67 68 69 69 70 72 73 74 76 79 82 85 87 89 91 93 95 97 99 99 99 100 100 101 102 101 98 96 95 95 94 93 93 91 89 86 84 82 79
52 51 51 51 51 50 48 47 45 44 44 44 46 48 49 48 49 49 49 50 52 53 56 59 61 61 62 62 64 66 68 69 72 76 79 81 83 84 86 89 91 93 95 97 98 98 98 99 100 100 98 95 94 94 93 92 91 90 89 87 85 83 81
46 46 47 47 47 45 43 42 41 41 41 42 43 44 44 43 43 44 44 45 47 49 51 54 55 55 56 57 59 62 64 66 70 73 76 77 79 80 82 84 86 89 91 94 96 96 96 96 97 98 97 95 94 94 93 91 90 90 89 88 85 83 83
41 42 43 43 41 39 38 37 38 38 38 38 38 39 39 39 39 40 41 42 45 47 48 50 52 52 53 55 58 60 62 65 69 71 73 74 74 75 77 80 82 85 88 90 93 93 94 94 95 95 96 96 95 94 92 90 90 90 89 87 85 83 84
38 39 39 37 36 35 34 34 34 34 34 34 34 35 36 36 37 39 40 42 44 46 47 49 50 51 52 55 57 59 61 65 67 69 69 70 71 73 75 78 80 82 83 86 88 90 91 92 92 92 93 95 96 94 92 90 90 90 89 87 84 84 85
35 35 34 33 32 31 31 30 29 30 31 32 34 35 35 35 36 38 39 41 43 45 46 47 49 50 52 54 56 58 60 63 64 66 67 68 69 72 74 76 78 79 79 81 84 85 87 88 88 88 90 93 95 93 91 90 89 89 87 85 84 85 84
Wind_Direction
246 245 243 242 240 239 238 237 236 236 235 234 233 231 230 231 230 226 226 226 222 218 218 220 223 226 229 232 233 234 233 232 233 235 240 247 253 256 256 255 255 254 251 249 251 252 251 251 251 251 252 252 253 253 255 257 257 258 259 260 262 264 265
246 246 246 244 243 241 240 239 237 236 236 235 234 233 231 231 232 230 227 227 227 222 219 219 221 222 225 229 231 232 233 234 234 233 237 245 250 251 251 252 254 253 249 246 247 250 252 252 252 252 253 254 254 254 255 256 258 259 260 261 262 262 263
246 246 246 246 245 243 242 241 240 238 237 236 235 234 233 232 232 233 231 229 229 227 223 221 222 221 222 225 228 229 231 234 237 237 238 242 246 247 247 247 249 250 248 247 246 245 247 249 252 254 257 258 258 258 257 258 258 259 260 261 261 262 262
248 247 246 246 246 245 244 243 242 241 239 238 236 235 235 234 233 233 233 232 231 230 227 224 224 223 222 223 226 228 230 233 236 237 238 240 242 243 243 244 246 248 248 248 247 244 243 245 248 253 258 262 263 263 261 260 259 259 259 260 260 261 262
249 249 248 248 247 246 246 245 244 243 241 240 239 236 235 235 234 233 233 234 233 232 230 227 226 225 223 222 224 227 230 231 232 234 235 236 238 240 241 242 245 247 247 247 247 246 244 244 245 248 255 261 266 267 264 262 261 259 259 259 260 261 262
249 249 248 248 248 248 247 246 246 244 243 242 241 239 237 235 235 235 234 234 234 234 233 231 229 228 226 223 223 226 228 227 227 228 229 231 233 236 239 240 243 245 246 246 246 245 245 245 245 247 250 255 261 267 267 264 263 262 261 260 260 260 261
249 249 248 248 247 248 248 247 247 246 245 243 242 241 240 238 236 235 235 235 235 234 234 233 232 231 229 226 224 225 225 223 224 226 226 228 231 234 237 238 241 244 245 246 247 245 244 245 245 247 248 250 254 260 264 264 264 265 264 262 261 261 261
249 249 249 248 247 247 247 247 246 246 246 245 243 242 241 240 239 237 236 235 235 235 235 234 234 233 232 230 226 226 226 223 223 224 225 227 232 236 239 238 239 242 244 246 247 246 245 245 245 246 247 248 250 253 256 259 261 263 265 263 261 261 262
250 249 249 249 249 248 247 246 245 245 245 245 245 243 242 241 240 239 238 236 236 235 235 235 235 234 233 232 229 227 228 226 224 222 223 224 228 233 237 238 238 240 242 243 245 246 245 244 244 245 246 246 248 250 251 254 257 259 261 261 260 261 264
250 250 250 250 250 249 248 247 246 245 244 244 245 244 243 241 241 240 240 239 237 236 236 235 235 235 234 234 232 228 228 229 228 224 221 222 224 227 232 235 236 238 239 241 243 244 244 244 243 243 244 245 247 249 250 252 254 256 255 256 258 261 265
251 251 250 250 249 249 249 249 248 246 244 243 243 243 244 243 242 241 240 240 239 238 237 236 235 235 235 234 234 231 229 229 230 229 225 223 223 225 228 232 234 235 236 239 241 242 243 244 245 244 243 244 245 247 249 251 253 254 253 253 257 260 263
252 251 251 250 250 249 249 249 249 248 247 245 243 242 242 242 242 242 240 240 240 239 239 238 236 236 235 234 234 234 231 229 229 231 231 228 227 228 230 233 234 233 234 236 239 241 242 244 246 246 244 244 244 245 247 250 252 254 253 253 256 259 261
252 252 252 252 251 251 250 249 249 248 248 247 245 243 242 241 241 241 241 240 240 239 239 239 238 237 236 235 234 234 234 232 229 230 232 233 232 232 234 235 235 234 235 235 236 239 241 242 245 246 245 245 244 244 245 247 250 253 254 254 255 257 260
253 253 253 252 252 252 251 250 249 248 248 247 246 245 243 242 240 240 240 240 240 240 239 239 239 238 237 236 235 234 234 234 232 230 231 233 234 235 236 237 237 236 237 236 235 236 237 239 242 245 246 246 245 245 245 246 248 250 252 255 256 256 258
253 253 253 252 252 251 250 250 249 248 247 246 246 245 244 243 242 240 239 239 240 240 240 239 239 239 238 238 237 235 234 234 234 233 232 232 233 235 236 237 238 238 238 237 236 236 236 237 240 244 246 246 246 246 246 246 247 248 250 253 255 256 257
254 253 253 253 252 251 250 249 249 248 248 247 246 245 244 244 243 242 240 239 239 239 239 239 239 238 238 238 238 237 236 235 234 233 233 232 232 233 235 236 237 238 238 238 237 237 237 236 238 243 247 247 247 247 247 247 248 248 250 252 254 256 258
254 254 254 254 253 252 251 251 250 250 249 248 247 246 246 244 244 243 242 241 240 239 239 239 239 239 238 238 238 238 237 236 235 234 233 233 233 233 233 235 236 237 238 238 238 238 237 238 238 241 245 247 248 248 248 249 249 249 250 252 254 256 258
255 255 255 255 255 254 253 252 252 251 251 250 249 248 247 246 245 244 243 243 242 241 240 239 239 239 239 238 238 238 238 238 236 235 234 233 233 233 233 233 234 236 237 238 238 238 238 239 239 240 242 244 245 247 248 249 249 250 250 252 254 256 258
257 257 257 256 256 255 254 254 253 253 252 252 251 250 248 247 246 246 245 244 243 242 242 241 239 239 238 238 238 238 238 238 238 237 235 234 234 233 232 232 233 235 236 236 237 238 238 238 239 239 241 243 243 244 246 248 249 249 250 251 254 256 258
258 258 257 257 256 256 255 255 254 253 253 253 252 251 250 249 248 247 246 245 244 243 243 242 241 240 239 238 238 238 238 238 238 237 236 235 235 234 233 232 232 233 235 235 236 237 237 238 238 238 240 242 243 244 245 247 248 249 250 252 254 256 257
259 259 258 257 257 256 256 255 254 254 253 253 253 252 252 251 249 248 247 246 245 244 244 243 243 242 241 240 238 238 238 238 238 238 237 236 235 235 234 234 233 232 233 234 235 236 236 237 237 238 238 240 242 244 245 246 248 249 250 251 253 255 257
260 260 259 258 258 257 256 256 255 254 254 253 253 253 253 252 251 250 249 248 246 245 244 244 243 243 242 241 240 239 238 237 237 238 238 237 237 236 235 235 234 233 233 233 234 235 236 236 237 237 237 238 240 242 244 245 247 248 249 250 252 254 256
261 261 260 260 259 259 258 257 256 256 255 254 254 254 253 253 252 251 250 249 248 247 245 244 244 243 242 242 241 241 240 238 238 237 237 238 237 236 236 235 235 234 233 233 233 234 235 235 236 237 237 237 238 240 243 245 246 247 248 249 250 252 253
261 261 261 261 260 260 259 258 258 257 257 256 255 255 254 253 252 252 251 250 249 248 246 244 243 243 242 242 241 241 240 240 239 238 237 238 238 237 236 235 235 235 234 233 233 233 234 235 235 236 237 237 238 239 241 243 245 246 247 248 249 250 251
261 261 260 260 260 259 259 259 258 258 257 257 256 255 254 253 253 252 251 250 249 248 246 245 244 243 242 242 241 240 239 240 239 239 238 238 238 237 237 236 235 235 235 234 233 233 234 234 234 235 236 237 237 238 240 242 243 244 244 246 247 248 249
261 260 260 259 259 259 258 258 258 258 257 257 256 255 254 253 252 252 251 250 249 248 246 245 244 243 242 241 241 240 239 239 239 239 238 238 237 237 237 236 235 235 234 234 233 233 233 234 234 234 235 236 237 237 238 240 241 241 241 242 244 245 247
262 261 260 260 259 259 258 258 258 257 257 256 255 255 254 253 252 251 250 249 248 247 246 245 244 242 241 241 240 239 238 238 238 238 238 238 238 237 237 236 236 235 234 234 234 233 233 233 233 234 235 235 236 237 237 238 240 240 240 241 243 244 246
263 262 262 261 260 260 259 259 258 257 256 256 255 254 253 252 252 251 250 249 248 247 246 245 244 242 241 240 239 239 238 238 238 238 238 238 238 237 237 236 236 235 234 234 233 233 233 232 232 233 234 234 235 236 237 237 239 240 240 240 242 244 246
265 264 263 262 261 261 260 260 259 258 257 255 254 253 252 252 251 250 249 248 247 246 245 244 243 242 240 239 239 238 237 237 237 237 237 237 237 237 237 236 236 235 235 234 233 233 233 232 232 232 233 234 234 235 236 237 238 240 240 240 241 243 245
266 265 265 264 264 263 262 261 259 258 256 255 254 252 252 251 250 249 248 246 245 244 243 243 242 241 240 239 238 237 236 236 236 236 237 236 236 236 236 236 235 235 235 234 233 232 232 232 231 231 232 233 233 234 236 236 237 238 239 239 239 241 244
268 267 267 267 266 265 263 261 260 258 256 255 254 252 250 249 249 247 246 245 243 242 242 242 241 241 239 238 238 237 236 236 235 236 236 236 236 235 235 235 235 235 234 233 232 232 231 231 231 231 231 232 233 234 235 236 237 238 238 238 239 240 242
268 268 268 268 267 265 264 263 261 260 257 255 254 252 249 248 248 247 245 244 243 241 242 242 241 240 239 238 238 237 236 235 235 235 236 236 236 235 235 234 234 234 234 233 232 231 231 231 231 231 230 230 231 233 234 235 236 237 238 238 238 239 240
268 267 267 266 265 264 264 263 262 260 258 255 253 251 249 248 247 246 245 243 243 241 241 241 240 239 239 238 237 237 236 235 235 235 235 236 236 235 235 234 234 233 233 233 232 231 230 230 230 230 229 229 230 231 233 233 235 236 237 237 237 238 238
267 265 264 263 264 264 263 262 261 258 255 253 251 250 249 247 246 245 244 242 242 241 240 240 240 238 237 236 236 235 235 235 235 235 235 235 235 235 235 234 234 233 233 232 231 231 230 229 229 229 228 228 228 229 230 231 232 234 235 236 237 237 238
265 264 262 262 263 263 261 258 256 254 251 250 248 247 246 245 243 243 242 241 241 240 239 240 239 237 236 235 235 234 233 233 234 234 234 235 235 235 235 235 234 233 232 232 231 230 229 228 228 228 227 227 226 227 228 229 231 232 234 235 236 237 238
263 262 262 262 261 259 256 253 250 249 247 246 244 243 243 242 241 241 241 240 240 239 238 238 238 236 234 234 234 233 233 233 233 234 234 234 234 234 234 234 233 232 231 231 231 229 228 228 227 227 226 226 225 226 226 228 230 231 233 234 234 236 238
262 261 261 259 256 253 251 247 245 244 243 242 241 241 240 240 238 237 237 237 237 237 236 236 236 235 234 233 232 232 232 232 233 233 233 232 232 231 232 232 232 232 231 231 231 229 228 227 227 226 226 225 224 224 225 226 228 230 232 233 234 235 237
Height
10657 10659 10661 10664 10666 10668 10670 10672 10674 10676 10679 10681 10683 10685 10687 10690 10693 10695 10698 10700 10703 10705 10707 10710 10712 10715 10716 10719 10722 10724 10726 10727 10729 10730 10732 10734 10737 10739 10740 10742 10744 10746 10748 10751 10752 10753 10755 10756 10758 10760 10761 10762 10764 10766 10767 10769 10771 10774 10775 10777 10779 10780 10780
10650 10652 10654 10656 10659 10661 10663 10665 10667 10669 10672 10675 10677 10679 10682 10684 10686 10689 10692 10694 10696 10699 10702 10704 10706 10708 10710 10713 10716 10718 10721 10722 10724 10725 10726 10729 10732 10733 10736 10739 10740 10741 10744 10746 10748 10750 10751 10752 10753 10755 10756 10758 10759 10761 10763 10764 10766 10768 10770 10772 10774 10775 10776
10643 10645 10647 10649 10651 10653 10656 10658 10660 10662 10665 10668 10670 10673 10675 10678 10680 10682 10685 10688 10690 10692 10695 10697 10699 10702 10704 10707 10710 10712 10715 10717 10718 10719 10721 10724 10727 10728 10731 10734 10735 10737 10739 10741 10743 10745 10746 10748 10750 10751 10752 10754 10755 10757 10759 10760 10762 10763 10764 10766 10767 10769 10770
10635 10637 10639 10641 10643 10645 10648 10650 10652 10654 10657 10660 10663 10666 10668 10671 10673 10675 10678 10680 10683 10685 10688 10691 10693 10695 10698 10701 10704 10707 10709 10711 10712 10714 10716 10718 10721 10724 10726 10728 10730 10732 10734 10737 10738 10740 10742 10744 10745 10747 10749 10750 10752 10753 10754 10756 10757 10758 10758 10760 10761 10763 10765
10626 10629 10631 10634 10635 10637 10640 10642 10644 10647 10649 10652 10654 10658 10661 10664 10666 10668 10670 10673 10675 10678 10681 10684 10686 10688 10691 10695 10698 10701 10704 10705 10707 10709 10711 10713 10716 10719 10721 10723 10725 10727 10730 10732 10734 10736 10738 10739 10740 10743 10744 10746 10748 10749 10750 10751 10752 10753 10753 10755 10756 10758 10759
10618 10620 10623 10625 10627 10629 10631 10633 10636 10638 10641 10644 10646 10649 10652 10655 10658 10660 10662 10665 10667 10670 10673 10676 10679 10682 10685 10688 10692 10695 10697 10700 10702 10704 10706 10708 10710 10712 10714 10716 10718 10720 10724 10726 10728 10731 10733 10734 10736 10738 10739 10741 10744 10745 10746 10747 10747 10748 10749 10750 10752 10753 10754
10609 10611 10613 10616 10618 10620 10622 10624 10627 10629 10632 10635 10638 10640 10643 10646 10649 10651 10654 10657 10659 10662 10665 10668 10671 10674 10678 10681 10685 10688 10690 10693 10696 10699 10701 10703 10703 10704 10707 10710 10712 10714 10718 10720 10723 10726 10727 10729 10731 10733 10734 10736 10739 10741 10742 10743 10743 10744 10745 10746 10747 10748 10749
10600 10602 10604 10606 10609 10611 10613 10615 10618 10620 10622 10625 10628 10631 10634 10636 10639 10642 10645 10648 10650 10653 10656 10659 10663 10666 10670 10674 10678 10681 10683 10686 10690 10693 10696 10697 10697 10698 10701 10705 10707 10709 10712 10714 10716 10720 10722 10724 10726 10727 10729 10732 10734 10735 10737 10738 10739 10740 10741 10741 10743 10744 10745
10592 10594 10595 10597 10599 10601 10604 10606 10608 10611 10613 10615 10618 10621 10624 10627 10630 10632 10635 10638 10640 10643 10646 10650 10653 10657 10661 10666 10670 10673 10675 10678 10682 10686 10689 10691 10692 10693 10695 10698 10702 10704 10707 10707 10709 10713 10716 10718 10719 10721 10724 10727 10728 10730 10732 10734 10735 10736 10737 10738 10739 10740 10741
10583 10585 10587 10588 10590 10592 10594 10596 10598 10601 10604 10606 10608 10611 10614 10617 10620 10622 10625 10628 10630 10634 10637 10640 10644 10647 10651 10656 10661 10665 10667 10669 10673 10678 10681 10684 10685 10687 10689 10693 10697 10699 10700 10700 10703 10706 10709 10710 10712 10715 10718 10721 10723 10725 10727 10729 10730 10731 10733 10734 10735 10736 10737
10574 10576 10578 10579 10581 10582 10584 10586 10588 10591 10594 10597 10599 10601 10603 10606 10609 10612 10615 10618 10620 10624 10626 10629 10633 10637 10641 10646 10650 10655 10658 10661 10664 10669 10673 10675 10676 10679 10682 10686 10691 10693 10693 10694 10697 10699 10701 10703 10705 10709 10713 10714 10717 10720 10722 10724 10725 10727 10729 10729 10730 10732 10733
10565 10567 10568 10570 10571 10572 10574 10576 10578 10580 10583 10586 10589 10592 10594 10596 10598 10601 10604 10607 10610 10613 10616 10619 10622 10626 10631 10635 10640 10644 10648 10652 10656 10659 10662 10665 10668 10671 10675 10679 10682 10685 10686 10688 10690 10692 10693 10696 10699 10703 10706 10708 10711 10714 10717 10718 10720 10722 10724 10724 10725 10728 10729
10556 10557 10558 10560 10561 10563 10564 10566 10568 10569 10572 10575 10578 10581 10583 10585 10587 10590 10593 10596 10599 10602 10605 10608 10611 10616 10620 10625 10629 10633 10637 10641 10647 10651 10653 10655 10659 10663 10667 10670 10673 10676 10678 10680 10683 10685 10687 10690 10692 10695 10697 10700 10705 10708 10710 10713 10715 10717 10719 10719 10721 10723 10724
10546 10547 10548 10550 10551 10552 10554 10555 10557 10559 10561 10563 10566 10568 10571 10573 10576 10579 10581 10584 10587 10590 10594 10597 10601 10605 10609 10614 10618 10622 10625 10630 10636 10641 10643 10646 10650 10653 10658 10661 10663 10667 10669 10672 10676 10679 10681 10683 10685 10686 10689 10694 10698 10701 10704 10707 10709 10712 10714 10714 10716 10718 10719
10535 10537 10538 10540 10541 10541 10543 10544 10546 10548 10550 10551 10554 10556 10559 10562 10565 10568 10571 10573 10576 10579 10582 10586 10590 10594 10598 10602 10606 10610 10614 10618 10624 10629 10633 10637 10640 10644 10647 10650 10654 10658 10659 10663 10667 10671 10675 10677 10677 10678 10681 10686 10692 10694 10697 10700 10702 10706 10709 10710 10710 10712 10714
10524 10526 10527 10528 10529 10530 10531 10533 10535 10536 10538 10540 10542 10544 10547 10550 10553 10556 10560 10563 10565 10568 10571 10575 10579 10583 10587 10590 10594 10598 10602 10607 10612 10616 10622 10626 10629 10633 10637 10640 10645 10648 10649 10654 10659 10663 10667 10669 10670 10672 10675 10679 10684 10687 10690 10693 10695 10700 10704 10704 10704 10706 10709
10513 10514 10515 10516 10516 10517 10518 10520 10522 10524 10526 10528 10530 10533 10535 10538 10542 10545 10549 10552 10554 10557 10561 10564 10568 10572 10576 10579 10582 10586 10590 10594 10599 10604 10610 10614 10618 10622 10627 10631 10635 10637 10639 10644 10650 10654 10658 10660 10663 10668 10670 10673 10677 10679 10683 10687 10688 10694 10698 10698 10699 10701 10704
10501 10502 10502 10503 10503 10504 10506 10508 10510 10512 10513 10515 10518 10521 10524 10527 10530 10533 10537 10540 10543 10546 10550 10553 10557 10561 10564 10568 10571 10574 10578 10581 10586 10591 10596 10601 10606 10611 10616 10622 10625 10626 10628 10635 10641 10645 10650 10652 10656 10662 10664 10667 10670 10672 10675 10679 10682 10687 10692 10692 10693 10696 10698
10488 10489 10489 10489 10490 10491 10493 10495 10497 10499 10501 10503 10506 10509 10513 10516 10518 10521 10524 10528 10531 10535 10538 10541 10546 10550 10553 10556 10559 10563 10566 10569 10573 10578 10583 10588 10593 10598 10604 10610 10614 10615 10618 10626 10632 10637 10641 10643 10648 10655 10657 10659 10663 10666 10668 10671 10674 10679 10685 10686 10686 10690 10693
10475 10475 10476 10476 10477 10478 10480 10483 10484 10486 10489 10491 10493 10496 10500 10503 10506 10509 10511 10514 10517 10521 10525 10529 10533 10537 10541 10544 10547 10550 10553 10556 10560 10564 10570 10575 10580 10586 10592 10597 10602 10605 10609 10616 10623 10626 10629 10633 10639 10646 10650 10652 10656 10659 10660 10663 10665 10672 10679 10680 10680 10683 10686
10461 10461 10462 10463 10464 10466 10468 10470 10472 10474 10476 10478 10481 10483 10486 10489 10493 10495 10498 10500 10503 10507 10512 10516 10520 10523 10526 10530 10533 10537 10540 10543 10547 10552 10557 10562 10567 10574 10579 10584 10590 10595 10600 10607 10611 10614 10619 10625 10630 10636 10642 10647 10650 10650 10651 10654 10658 10665 10673 10674 10674 10677 10680
10447 10447 10449 10450 10451 10454 10456 10457 10458 10461 10463 10465 10467 10469 10472 10475 10478 10480 10483 10486 10489 10493 10498 10503 10505 10508 10510 10513 10517 10522 10526 10530 10535 10540 10544 10549 10555 10561 10567 10572 10579 10584 10590 10596 10599 10602 10609 10616 10620 10625 10632 10639 10642 10641 10642 10646 10651 10659 10666 10667 10668 10671 10674
10433 10435 10436 10437 10438 10440 10441 10443 10444 10446 10449 10452 10454 10456 10458 10460 10462 10464 10467 10470 10474 10478 10483 10487 10489 10490 10493 10497 10502 10506 10511 10516 10521 10527 10532 10536 10542 10549 10555 10560 10566 10572 10578 10584 10588 10593 10599 10605 10610 10616 10622 10629 10633 10633 10635 10639 10645 10652 10657 10659 10661 10664 10667
10421 10423 10423 10424 10424 10425 10426 10428 10430 10432 10435 10437 10439 10442 10444 10445 10446 10448 10451 10454 10458 10462 10467 10471 10472 10473 10476 10481 10487 10492 10496 10501 10506 10513 10519 10524 10529 10535 10541 10547 10553 10559 10565 10572 10578 10583 10588 10594 10601 10606 10611 10617 10622 10625 10630 10634 10638 10644 10649 10651 10654 10657 10660
10409 10410 10409 10409 10409 10410 10411 10413 10415 10417 10420 10422 10424 10426 10427 10429 10430 10432 10435 10438 10441 10445 10450 10454 10455 10457 10460 10465 10471 10477 10481 10486 10492 10498 10505 10511 10516 10521 10527 10534 10541 10547 10553 10561 10568 10573 10578 10584 10591 10596 10600 10606 10611 10617 10623 10627 10631 10636 10640 10643 10646 10649 10652
10395 10395 10394 10394 10394 10395 10396 10398 10400 10402 10405 10407 10408 10410 10410 10412 10414 10416 10418 10422 10425 10429 10434 10438 10439 10441 10444 10448 10454 10461 10467 10472 10478 10484 10491 10497 10502 10507 10514 10521 10528 10535 10542 10549 10555 10562 10568 10574 10579 10585 10590 10595 10601 10608 10615 10617 10620 10626 10631 10634 10637 10640 10643
10381 10380 10380 10379 10380 10381 10382 10384 10386 10388 10390 10392 10393 10394 10395 10396 10399 10401 10403 10406 10410 10415 10419 10421 10422 10425 10429 10433 10438 10445 10453 10459 10464 10471 10477 10482 10488 10494 10500 10508 10515 10522 10529 10536 10543 10551 10558 10563 10569 10574 10578 10584 10591 10598 10604 10607 10609 10614 10622 10627 10630 10633 10635
10367 10367 10366 10366 10367 10368 10369 10371 10372 10374 10376 10377 10378 10379 10380 10382 10384 10386 10389 10393 10397 10401 10404 10404 10405 10409 10414 10419 10423 10430 10439 10446 10452 10458 10463 10469 10474 10480 10487 10494 10502 10510 10516 10524 10532 10540 10547 10553 10558 10562 10566 10574 10581 10586 10591 10597 10599 10605 10614 10621 10624 10626 10627
10354 10354 10353 10353 10354 10356 10357 10358 10359 10361 10363 10364 10365 10366 10367 10369 10371 10373 10376 10380 10384 10387 10388 10388 10390 10395 10400 10405 10409 10417 10426 10434 10440 10445 10450 10456 10461 10466 10473 10481 10489 10497 10503 10512 10521 10529 10535 10541 10546 10551 10556 10563 10570 10574 10579 10587 10593 10599 10606 10612 10616 10617 10619
10342 10341 10342 10342 10343 10345 10346 10347 10347 10349 10350 10352 10353 10354 10355 10357 10358 10361 10364 10368 10371 10374 10374 10375 10378 10382 10387 10392 10398 10406 10415 10422 10429 10434 10438 10442 10446 10452 10460 10468 10476 10484 10491 10500 10509 10516 10522 10528 10533 10540 10546 10553 10560 10565 10571 10579 10586 10590 10597 10604 10608 10610 10612
10331 10331 10332 10333 10333 10334 10335 10335 10336 10338 10340 10342 10342 10343 10344 10346 10347 10350 10354 10356 10359 10363 10363 10364 10367 10372 10377 10383 10390 10398 10405 10412 10419 10423 10425 10429 10433 10440 10448 10455 10463 10471 10478 10487 10495 10502 10508 10515 10522 10530 10538 10546 10553 10558 10564 10571 10576 10582 10590 10596 10600 10603 10605
10322 10322 10323 10323 10323 10324 10324 10326 10327 10329 10331 10332 10332 10332 10334 10336 10338 10340 10344 10347 10350 10353 10354 10354 10358 10363 10369 10376 10383 10389 10395 10402 10408 10411 10413 10417 10422 10430 10437 10444 10451 10458 10465 10473 10482 10489 10496 10504 10512 10520 10529 10538 10545 10550 10556 10563 10569 10575 10582 10587 10591 10595 10599
10314 10314 10314 10314 10314 10315 10316 10318 10319 10321 10322 10323 10323 10323 10325 10328 10330 10332 10335 10338 10341 10343 10345 10346 10350 10357 10363 10370 10376 10380 10386 10393 10397 10400 10403 10407 10413 10420 10426 10433 10440 10446 10453 10462 10469 10477 10485 10494 10503 10511 10521 10530 10538 10543 10548 10555 10561 10566 10572 10578 10582 10587 10591
10306 10306 10306 10306 10306 10308 10310 10311 10312 10313 10314 10314 10315 10316 10318 10321 10323 10325 10328 10331 10333 10335 10338 10340 10344 10351 10357 10362 10367 10372 10378 10383 10386 10389 10393 10398 10404 10410 10417 10424 10430 10436 10443 10450 10457 10465 10475 10484 10493 10502 10511 10521 10528 10532 10538 10546 10552 10557 10563 10569 10575 10580 10583
10299 10298 10298 10299 10300 10302 10304 10305 10305 10306 10307 10308 10309 10311 10312 10315 10318 10319 10322 10325 10327 10329 10332 10334 10339 10345 10350 10354 10358 10363 10368 10372 10375 10379 10385 10390 10397 10403 10409 10414 10420 10425 10432 10438 10445 10455 10465 10473 10482 10492 10502 10510 10516 10522 10530 10537 10543 10548 10554 10561 10568 10573 10575
10292 10292 10292 10294 10296 10297 10298 10299 10300 10300 10302 10303 10304 10306 10307 10310 10312 10314 10316 10319 10320 10323 10326 10329 10333 10338 10343 10346 10351 10355 10359 10363 10366 10372 10378 10384 10389 10394 10399 10403 10408 10415 10422 10429 10436 10445 10455 10463 10473 10484 10492 10500 10506 10514 10522 10529 10534 10540 10546 10554 10561 10565 10567
10286 10287 10288 10289 10290 10291 10292 10294 10295 10296 10297 10298 10299 10301 10303 10305 10307 10309 10311 10313 10315 10317 10320 10323 10326 10331 10335 10339 10343 10348 10352 10356 10360 10365 10370 10375 10380 10384 10389 10394 10399 10406 10415 10421 10428 10437 10447 10456 10466 10476 10483 10490 10497 10506 10515 10522 10528 10534 10541 10548 10553 10558 10561